This demonstration page uses our WeatherBlox Daily Observations layout. Learn more.

Left ArrowRight Arrow

41.86663, -103.66717

Hourly Observations for January 21, 2017

Temp ( °F °C ) Dew Point ( °F °C ) Humidity (%) Winds ( mph kmh ) Pressure ( in mb ) Visibility ( mi km ) Precip ( " mm )
12:53 am 00:53 Clear 28 -2.2 22 -5.6 78 78 NW 5 7 29.43 997 10 16 0.00 0.00
1:53 am 01:53 Clear 26 -3.3 21 -6.1 81 81 NNW 7 11 29.45 997 10 16 0.00 0.00
2:53 am 02:53 Clear 26 -3.3 20 -6.7 78 78 NW 5 7 29.45 997 10 16 0.00 0.00
3:53 am 03:53 Clear 23 -5 19 -7.2 85 85 NE 3 6 29.44 997 10 16 0.00 0.00
4:53 am 04:53 Clear 23 -5 18 -7.8 81 81 Calm 29.44 997 10 16 0.00 0.00
5:53 am 05:53 Clear 21 -6.1 17 -8.3 85 85 Calm 29.44 997 10 16 0.00 0.00
6:53 am 06:53 Clear 18 -7.8 15 -9.4 88 88 NNW 5 7 29.47 998 10 16 0.00 0.00
7:53 am 07:53 Sunny 21 -6.1 16 -8.9 81 81 NNW 5 7 29.48 998 10 16 0.00 0.00
8:53 am 08:53 Sunny 28 -2.2 22 -5.6 78 78 Calm 29.47 998 10 16 0.00 0.00
9:53 am 09:53 Sunny 31 -0.6 25 -3.9 79 79 Calm 29.48 998 10 16 0.00 0.00
10:53 am 10:53 Sunny 35 1.7 27 -2.8 72 72 Calm 29.47 998 10 16 0.00 0.00
11:53 am 11:53 Sunny 38 3.3 27 -2.8 65 65 E 5 7 29.45 997 10 16 0.00 0.00
12:53 pm 12:53 Sunny 42 5.6 27 -2.8 55 55 Calm 29.43 997 10 16 0.00 0.00
1:53 pm 13:53 Sunny 43 6.1 27 -2.8 53 53 Calm 29.42 996 10 16 0.00 0.00
2:53 pm 14:53 Sunny 42 5.6 29 -1.7 60 60 Calm 29.46 998 10 16 0.00 0.00
3:53 pm 15:53 Sunny 39 4 30 -1 70 70 SSE 5 7 29.50 999 10 16 0.00 0.00
4:53 pm 16:53 Sunny 36 2.2 30 -1.1 79 79 Calm 29.54 1001 10 16 0.00 0.00
5:53 pm 17:53 Clear 33 0.6 28 -2.2 82 82 Calm 29.60 1002 10 16 0.00 0.00
6:53 pm 18:53 Mostly Cloudy 31 -0.6 27 -2.8 85 85 NNE 6 9 29.64 1004 10 16 0.00 0.00
7:53 pm 19:53 Clear 29 -1.7 25 -3.9 85 85 NE 6 9 29.66 1005 10 16 0.00 0.00
8:53 pm 20:53 Clear 29 -1.7 25 -3.9 85 85 NNE 6 9 29.67 1005 10 16 0.00 0.00
9:53 pm 21:53 Mostly Cloudy 27 -2.8 24 -4.4 89 89 NW 5 7 29.71 1006 10 16 0.00 0.00
10:53 pm 22:53 Clear 26 -3.3 23 -5 88 88 NW 6 9 29.74 1007 10 16 0.00 0.00
11:53 pm 23:53 Cloudy 29 -1.7 25 -3.9 85 85 WNW 6 9 29.74 1007 10 16 0.00 0.00

Powered by AerisWeather